Location: Unspecified
(48.8656°N, 0.0000°E)
Time: 00:26:42
(UTC+00:00)

Vanguard 1 - Pass Details

Date: 22 June 2019
Orbit: 653 x 3830 km, 34.3° (Epoch: 22 July)

Event Time Altitude Azimuth Distance (km) Brightness Sun altitude
Rises 23:02:59 0° 182° (S) 7,946 - -16.5°
Reaches altitude 10° 23:14:00 10° 160° (SSE) 6,621 - -16.9°
Exits shadow 23:19:57 13° 143° (SE) 6,078 13.5 -17.1°
Maximum altitude 23:20:57 13° 140° (SE) 6,008 13.5 -17.1°
Drops below altitude 10° 23:27:07 10° 120° (ESE) 5,778 13.6 -17.3°
Sets 23:34:46 0° 95° (E) 6,072 14.0 -17.4°
